This is the latest recevied weather packets stored in our database for station/object W0CHP-13. If no packets are shown the sender has not sent any weather packets the latest 10 day(s).
| Time | Temp. | Humidity | Pressure | Rain* | Wind** | Luminosity | Snow |
|---|---|---|---|---|---|---|---|
| 1778017999 | 12.78° C | 26% | 1008.5 hPa | 0 mm | - | 142 W/m² | - |
| 1778017397 | 13.33° C | 26% | 1008.5 hPa | 0 mm | - | 153 W/m² | - |
| 1778016795 | 13.33° C | 26% | 1008.7 hPa | 0 mm | - | 252 W/m² | - |
| 1778016197 | 13.33° C | 25% | 1008.5 hPa | 0 mm | - | 171 W/m² | - |
| 1778015595 | 13.33° C | 26% | 1008.5 hPa | 0 mm | - | 190 W/m² | - |
| 1778014998 | 13.89° C | 25% | 1008.5 hPa | 0 mm | - | 194 W/m² | - |
| 1778014396 | 13.89° C | 25% | 1008.4 hPa | 0 mm | - | 690 W/m² | - |
| 1778013798 | 13.89° C | 25% | 1008.7 hPa | 0 mm | - | 331 W/m² | - |
| 1778013196 | 14.44° C | 26% | 1008.7 hPa | 0 mm | - | 212 W/m² | - |
| 1778012598 | 13.33° C | 26% | 1008.9 hPa | 0 mm | - | 795 W/m² | - |
| 1778011997 | 13.89° C | 25% | 1008.5 hPa | 0 mm | - | 234 W/m² | - |
| 1778011399 | 14.44° C | 24% | 1008.9 hPa | 0 mm | - | 209 W/m² | - |
| 1778010797 | 14.44° C | 25% | 1008.7 hPa | 0 mm | - | 834 W/m² | - |
| 1778010195 | 14.44° C | 23% | 1008.9 hPa | 0 mm | - | 333 W/m² | - |
| 1778009597 | 13.89° C | 25% | 1008.9 hPa | 0 mm | - | 755 W/m² | - |
| 1778008995 | 14.44° C | 24% | 1008.9 hPa | 0 mm | - | 280 W/m² | - |
| 1778008397 | 13.89° C | 26% | 1008.9 hPa | 0 mm | - | 989 W/m² | - |
| 1778007796 | 13.89° C | 24% | 1008.9 hPa | 0 mm | - | 266 W/m² | - |
| 1778007198 | 13.89° C | 26% | 1008.9 hPa | 0 mm | - | 661 W/m² | - |
| 1778006596 | 14.44° C | 24% | 1008.9 hPa | 0 mm | - | 322 W/m² | - |
| 1778005998 | 14.44° C | 24% | 1008.9 hPa | 0 mm | - | 790 W/m² | - |
| 1778005396 | 13.89° C | 27% | 1008.9 hPa | 0 mm | - | 887 W/m² | - |
| 1778004799 | 14.44° C | 24% | 1008.5 hPa | 0 mm | - | 268 W/m² | - |
| 1778004197 | 13.33° C | 27% | 1008.7 hPa | 0 mm | - | 532 W/m² | - |
| 1778003595 | 13.89° C | 24% | 1008.7 hPa | 0 mm | - | 478 W/m² | - |
* Rain latest hour (hover to see other rain measurements)
** Current wind speed in m/s (hover to see current wind gust speed)